Theta_e
299 299 299 299 299 302 312 312 313 317 322 321 323 323 323 326 324 324 322 321 319 317 313 306 307 318 321 321 319 316 315 316 314 311 314 314 313 314 313 312 311 309 309
302 300 300 300 300 304 313 311 314 316 320 321 321 321 323 322 321 321 320 319 319 318 308 306 307 317 322 322 317 317 316 315 312 312 313 313 313 313 312 310 307 308 308
302 301 302 303 303 307 309 311 315 318 318 321 322 320 320 319 320 319 319 318 317 311 306 304 313 322 322 320 317 315 315 314 312 313 313 315 313 312 310 308 306 308 307
302 302 302 304 306 308 310 312 316 319 317 320 320 320 320 320 320 320 319 314 309 307 305 306 317 322 322 318 313 312 314 313 313 314 316 315 313 311 308 306 308 307 308
303 303 302 304 306 308 310 312 314 316 316 318 319 320 320 318 320 318 313 312 312 307 306 313 318 322 320 317 314 314 314 311 315 315 315 314 312 311 307 307 307 307 306
303 304 305 307 308 309 311 313 314 315 316 317 319 318 319 318 319 316 314 313 314 308 314 320 321 319 318 316 316 314 313 312 312 315 314 313 311 309 306 307 307 307 306
303 303 305 307 309 309 310 312 312 315 316 314 318 318 318 318 319 317 316 315 316 317 318 319 316 318 317 317 316 315 314 311 314 315 313 312 310 308 306 307 307 306 305
304 305 307 307 309 309 310 312 313 315 313 315 317 317 315 314 317 317 317 317 318 317 315 314 315 314 313 314 312 314 315 314 312 315 313 311 309 307 306 307 306 306 304
304 307 307 309 311 311 313 313 315 313 312 314 314 316 313 310 312 313 314 315 315 314 314 314 313 312 312 312 314 314 314 314 315 314 313 311 309 308 305 306 305 304 303
306 307 308 309 312 312 312 315 315 315 313 315 316 316 315 315 312 309 313 313 313 313 314 314 313 313 313 313 313 313 313 313 312 313 312 310 308 307 305 305 304 302 301
306 307 308 309 311 313 311 312 314 316 315 316 315 315 314 314 314 312 311 312 312 312 313 314 312 312 312 313 313 313 312 311 310 310 311 309 307 305 303 303 302 300 298
307 307 308 309 311 313 314 313 315 315 314 316 316 315 315 314 313 312 311 311 311 312 314 314 313 313 312 311 312 312 311 309 308 309 309 307 306 304 304 299 299 298 297
307 308 308 309 311 313 314 314 313 312 315 314 315 314 314 314 313 312 312 311 311 310 312 314 312 311 311 311 311 311 310 309 307 307 306 306 305 302 298 297 297 298 297
308 308 308 309 311 312 314 314 314 313 314 313 313 313 313 313 313 311 312 312 312 313 313 313 312 311 310 310 311 311 311 309 307 306 307 307 305 303 296 296 297 298 297
308 309 310 311 312 313 314 315 315 315 314 313 314 314 314 313 313 313 312 311 313 313 312 312 311 311 309 310 310 310 310 310 309 309 307 306 306 303 296 296 297 298 297
309 309 310 311 312 313 314 315 315 316 315 315 313 314 314 313 313 313 313 313 312 314 314 313 312 311 310 310 310 310 310 309 310 308 307 307 305 304 301 295 295 297 297
310 310 310 311 312 314 313 314 315 315 314 315 314 314 314 313 313 315 315 315 314 315 316 313 312 312 311 311 311 310 310 309 308 307 307 306 304 304 304 300 294 295 297
312 311 311 312 313 313 314 315 315 315 314 314 315 314 314 313 315 315 316 316 316 316 316 315 312 312 312 310 310 310 310 309 308 307 307 305 304 304 304 305 304 299 294
312 313 312 313 313 313 316 317 315 315 314 316 315 314 314 314 314 316 316 316 316 316 317 316 315 312 311 310 309 308 308 306 306 305 305 303 304 304 304 304 304 303 301
313 313 312 312 312 314 316 315 315 316 315 315 316 316 317 317 317 315 315 316 317 317 317 315 314 312 311 310 308 308 307 306 305 305 305 304 304 303 303 303 301 301 300
313 314 314 315 316 316 316 316 315 315 316 316 316 316 317 318 317 317 318 317 317 317 316 314 312 310 307 306 306 305 305 304 304 304 304 304 303 303 303 302 301 301 299
313 315 315 316 317 317 318 316 316 315 315 315 315 315 317 317 317 317 317 317 317 316 314 312 310 307 306 306 304 303 302 302 303 303 304 303 303 301 298 295 296 297 298
315 315 314 315 317 317 318 317 317 316 315 316 316 316 316 318 317 318 317 316 315 314 313 311 309 307 305 305 304 303 302 302 303 303 302 301 298 295 293 292 293 293 294
314 314 315 317 318 318 318 318 317 318 318 318 318 318 317 318 318 317 317 315 314 313 311 309 307 305 303 301 300 300 299 298 297 296 295 295 294 292 291 292 293 293 292
317 316 318 318 318 317 318 318 318 318 318 318 318 318 318 317 316 315 315 314 312 311 307 304 303 301 300 299 299 299 297 295 294 294 294 295 294 292 291 291 291 289 289
317 318 318 318 318 317 317 317 318 317 318 317 317 316 315 315 313 312 312 309 307 305 304 303 302 302 301 300 300 299 298 298 296 295 294 292 291 290 291 290 289 289 292
Wind_Speed
17 15 14 12 12 12 12 13 15 16 17 18 18 17 18 26 26 30 28 17 8 8 7 13 16 16 15 13 6 7 5 5 5 9 11 10 10 10 6 4 5 11 11
16 14 12 10 9 12 12 13 15 16 18 24 22 22 23 28 27 25 22 18 20 22 15 17 19 17 19 12 10 7 6 5 7 8 11 8 7 5 4 7 10 11 14
14 12 9 7 9 9 12 13 14 16 18 20 25 29 28 25 25 21 18 19 21 22 21 20 20 18 19 14 11 8 5 6 8 8 10 7 3 4 7 8 8 13 12
10 7 7 5 6 9 8 15 11 14 17 21 22 28 25 20 24 21 22 23 24 21 18 19 21 17 28 19 14 9 6 8 10 10 9 5 3 6 10 12 11 11 13
4 5 3 2 5 9 8 12 13 15 15 18 24 22 21 23 21 25 27 24 20 18 20 19 19 20 22 18 14 10 7 10 11 9 7 1 4 7 9 9 9 12 11
4 4 1 3 5 7 6 8 12 13 17 24 25 23 22 24 29 30 25 20 18 16 15 18 28 24 19 14 9 8 8 9 11 8 4 1 3 7 8 9 10 11 12
3 1 1 1 4 6 7 12 11 13 18 19 27 24 23 20 38 28 24 20 18 15 14 26 14 16 11 11 10 9 9 8 10 7 3 0 6 7 8 8 10 10 10
3 6 2 2 4 2 8 8 12 9 19 21 26 28 20 26 37 33 28 28 22 20 14 14 7 7 7 7 4 10 10 7 8 6 2 3 5 8 8 9 9 8 9
6 3 2 2 4 1 8 6 10 14 10 28 30 25 13 11 35 31 30 25 18 14 14 11 11 9 9 9 10 7 6 9 10 5 3 1 2 7 6 5 7 7 7
6 4 2 2 6 2 2 2 10 12 19 35 33 26 19 37 25 23 22 18 15 12 13 9 9 7 7 7 6 5 6 9 8 6 4 4 1 6 5 4 5 5 7
6 4 2 2 5 7 5 4 1 11 17 32 27 32 31 32 32 29 26 19 15 12 10 9 10 8 4 5 3 5 7 9 10 8 7 5 5 5 3 1 3 4 6
4 3 1 1 1 5 8 4 2 18 23 27 28 23 30 33 29 27 28 24 20 17 14 11 8 4 2 5 6 6 8 8 8 9 7 6 7 9 12 6 4 6 6
2 2 1 0 3 6 8 4 12 8 8 20 21 18 25 24 24 17 26 27 22 18 13 11 8 5 5 6 5 6 8 8 8 7 5 8 11 13 12 9 7 7 8
3 2 1 1 4 6 7 9 8 10 12 15 19 19 12 18 19 20 23 24 17 14 15 12 10 9 6 7 7 5 7 9 6 7 6 9 10 11 12 9 8 8 10
5 3 1 1 2 7 9 7 7 11 13 18 15 11 18 23 19 22 19 24 19 16 16 14 12 12 10 8 8 7 7 6 5 4 6 10 11 11 11 9 9 10 10
5 4 3 1 2 7 8 8 7 8 13 17 19 15 13 15 16 20 20 21 19 7 10 13 14 11 12 10 9 7 6 5 5 5 7 11 11 10 13 12 10 10 12
3 3 4 2 4 9 6 4 8 8 10 11 18 15 13 22 20 15 15 16 23 14 7 12 14 12 11 11 10 7 7 6 6 6 8 7 8 9 12 13 12 12 13
4 4 4 4 5 11 8 11 10 15 19 20 17 18 23 24 18 10 9 11 13 11 6 6 13 13 9 9 8 7 7 7 7 8 9 8 8 10 12 14 15 14 15
3 4 5 7 15 13 10 11 13 16 15 14 20 20 19 16 17 12 12 15 12 6 4 3 7 11 9 8 5 5 6 6 5 6 9 11 10 11 12 15 15 16 15
6 10 11 15 15 12 10 13 15 15 16 17 17 13 14 13 10 13 16 13 9 4 4 4 5 8 7 6 5 4 4 5 7 9 10 10 10 12 14 15 17 17 17
14 14 16 15 13 10 11 13 16 18 23 20 13 13 12 14 10 11 10 11 9 4 9 6 7 8 8 5 3 1 1 3 5 6 8 9 10 12 16 19 21 21 19
18 17 17 14 12 13 14 14 14 18 22 18 15 16 12 10 8 9 5 8 9 9 8 6 6 7 6 5 3 2 2 2 4 5 6 9 11 15 16 15 13 13 14
16 15 15 11 12 11 14 12 13 16 17 15 13 15 14 11 11 9 6 12 13 10 6 4 3 6 4 4 1 1 1 2 3 6 8 8 7 9 9 11 10 10 10
14 13 9 10 9 12 11 13 11 15 16 14 12 14 14 13 10 9 10 13 11 9 8 4 4 4 4 3 1 2 2 2 4 6 6 3 3 6 3 6 8 11 14
12 13 10 10 13 14 15 13 16 16 16 17 17 15 16 12 13 13 12 10 10 7 5 5 3 3 3 3 3 2 2 2 3 5 5 5 5 4 2 5 13 16 16
16 15 15 16 16 16 17 14 14 17 20 22 20 20 18 18 17 14 9 8 6 6 5 4 3 3 3 2 2 3 3 4 5 5 8 10 10 10 1 5 11 12 16
Wind_Direction
302 298 289 274 255 233 221 226 230 232 204 198 194 192 202 188 171 159 157 170 170 149 166 181 190 183 177 188 174 163 113 99 87 92 94 89 82 94 82 50 28 51 53
300 296 287 270 245 231 219 234 233 224 211 204 209 193 187 174 179 187 205 208 221 234 198 199 195 192 174 177 170 144 117 111 105 96 107 95 111 87 40 356 11 63 57
298 293 283 260 272 218 222 233 238 223 211 205 203 197 200 199 196 189 192 194 182 177 191 204 191 185 175 176 151 129 116 111 109 103 112 113 72 27 8 7 54 64 59
300 288 277 286 301 252 241 226 234 223 209 198 191 192 195 195 193 199 196 179 178 183 195 202 198 184 161 153 139 117 112 116 109 103 124 123 47 358 28 60 69 68 60
313 304 301 289 283 243 249 228 230 218 204 203 190 184 183 191 197 176 174 175 178 189 194 205 208 171 148 140 119 111 105 124 115 124 133 114 355 336 37 68 71 69 63
338 314 299 259 286 253 240 236 225 213 213 201 183 182 186 187 177 173 173 178 184 195 203 200 139 127 120 120 109 83 109 122 127 143 132 82 3 3 56 75 71 63 60
318 216 128 270 336 268 250 226 228 210 198 207 185 173 171 182 183 172 179 169 158 150 155 129 111 118 101 121 105 90 101 115 131 147 135 111 322 38 87 81 73 65 56
350 124 119 349 343 275 236 241 229 193 194 211 186 169 147 153 146 159 164 156 157 154 111 108 147 136 149 139 147 133 130 114 143 148 137 349 22 17 87 79 79 69 63
90 108 94 27 9 248 217 270 195 173 194 191 207 174 144 153 127 128 132 131 135 127 135 123 127 126 135 136 148 150 131 149 150 158 157 35 31 1 88 85 77 61 55
80 68 89 2 23 19 122 154 174 197 175 169 179 183 179 149 137 114 125 135 137 135 128 131 130 132 134 142 149 162 157 157 160 165 190 263 326 327 92 83 65 64 37
70 65 74 312 12 85 108 274 124 201 190 179 180 169 158 150 149 139 134 144 151 150 144 159 148 137 151 179 169 164 165 167 174 185 202 232 302 327 348 113 56 23 9
72 87 74 6 48 94 146 197 123 181 196 185 191 151 173 168 170 170 155 159 161 164 182 177 151 153 259 206 186 160 175 188 187 189 213 260 286 309 299 315 302 337 333
86 117 101 42 40 117 121 192 118 129 159 153 150 171 169 159 162 175 174 159 165 168 159 176 174 191 217 205 188 171 191 197 196 203 267 299 298 299 300 305 296 309 307
146 200 221 134 44 148 120 157 158 148 163 172 170 172 209 216 191 197 177 162 148 168 175 183 196 202 217 218 206 206 211 200 210 223 280 312 310 319 322 301 297 297 303
176 192 188 29 52 149 146 149 159 173 157 166 167 176 188 186 195 177 178 191 184 179 192 198 201 204 218 217 212 216 204 217 243 279 282 305 314 332 325 316 304 296 299
195 204 202 191 110 152 141 125 126 137 197 198 187 185 184 172 163 179 186 192 204 203 196 214 210 207 216 216 213 220 207 238 263 290 293 306 315 330 332 318 315 296 288
217 215 219 203 148 162 150 131 123 125 129 164 161 169 177 163 168 176 189 199 208 215 258 220 209 210 208 216 220 222 229 263 271 290 305 306 319 321 328 326 327 317 299
209 225 213 197 175 149 141 140 113 129 141 145 162 151 156 169 171 172 194 188 187 209 238 214 199 199 195 206 222 237 245 263 267 282 292 295 312 314 327 329 327 323 316
179 194 193 162 149 145 127 116 149 147 143 144 153 150 162 176 182 194 175 181 181 188 138 151 192 190 192 195 223 257 255 259 273 301 315 321 323 327 329 321 317 315 306
130 134 141 140 143 142 136 131 148 151 161 141 151 144 147 163 171 170 172 175 185 156 161 135 161 165 168 194 226 245 269 284 291 308 313 313 309 311 314 308 308 309 308
128 125 127 129 130 135 158 142 143 154 162 157 160 158 151 147 146 170 176 195 191 198 161 137 143 142 139 136 145 129 244 299 308 301 304 306 315 310 310 310 311 314 318
136 132 128 130 137 128 124 146 144 148 164 175 177 173 165 179 195 179 183 151 136 140 138 118 125 143 130 127 122 99 10 347 322 319 318 321 315 306 312 312 306 302 303
144 148 150 143 139 139 136 142 154 161 171 177 191 200 198 185 182 175 172 153 142 144 138 124 140 140 136 123 127 102 279 296 294 288 293 304 300 312 344 2 14 2 343
159 158 156 151 150 155 154 159 160 164 173 173 170 168 179 173 174 174 162 154 151 160 151 134 84 64 58 60 54 7 356 327 322 319 326 338 359 331 352 14 7 359 349
167 159 164 166 160 152 151 142 164 151 160 168 173 168 163 155 150 147 156 161 149 140 131 120 111 96 84 75 55 32 34 15 351 325 352 2 21 1 269 332 350 352 356
171 159 150 148 152 134 131 148 162 157 148 148 148 145 145 147 143 138 138 133 141 147 136 116 125 127 109 84 39 22 9 8 4 340 7 9 20 29 349 1 342 350 356